Regional Weather Roundup
Issued by NWS

Home | Current Version | Previous Version | Text Only | Print | Product List | Glossary Off
Versions: 1 2 3 4 5 6 7 8 9 10 11 12 13 14 15 16 17 18 19 20 21 22 23 24 25 26 27 28 29 30 31 32 33 34 35 36 37 38 39 40 41 42 43 44 45 46 47 48 49 50

000
ASUS43 KDMX 010107
RWRIA

WEATHER ROUNDUP FOR IOWA
NATIONAL WEATHER SERVICE DES MOINES IA
800 PM CDT THU JUL 31 2014

NOTE: "FAIR" INDICATES FEW OR NO CLOUDS BELOW 12,000 FEET WITH NO
SIGNIFICANT WEATHER AND/OR OBSTRUCTIONS TO VISIBILITY.

* - THESE STATIONS ARE NOT NWS STATIONS...THUS NOT UNDER NWS
QUALITY CONTROL.  THEY ALSO DO NOT REPORT WEATHER SUCH
AS PRECIPITATION OR FOG.

IAZ001>003-012>014-020>022-031>034-043>046-010200-
   NORTHWEST IOWA

CITY           SKY/WX    TMP DP  RH WIND       PRES   REMARKS
CARROLL *      CLEAR     68  61  77 CALM      30.04F
CHEROKEE *     PTCLDY    70  63  78 CALM      30.04S
DENISON *      CLOUDY    66  66 100 CALM      30.03F
LE MARS *      PTCLDY    73  63  68 SW5       30.04F
ORANGE CITY *  CLEAR     73  59  60 CALM      30.05S
SHELDON *      CLEAR     70  63  78 SW5       30.04S
SIOUX CITY     PTCLDY    72  63  73 E5        30.03F
SPENCER        PTCLDY    73  62  68 SW7       30.04S
STORM LAKE *   CLEAR     70  63  78 SW5       30.06S
$$

IAZ055>058-069>071-079>083-090>094-010200-
   SOUTHWEST IOWA

CITY           SKY/WX    TMP DP  RH WIND       PRES   REMARKS
ATLANTIC *     MOCLDY    72  64  78 NE3       30.04S
AUDUBON *      PTCLDY    70  64  83 CALM      30.06F
CLARINDA *     PTCLDY    75  66  73 CALM      30.05S
COUNCIL BLFS * CLEAR     75  61  60 E8        30.01F
CRESTON *      MOCLDY    73  61  64 NE6       30.06S
HARLAN  *      CLOUDY    72  64  78 VRB3      30.07F
LAMONI         CLEAR     77  54  44 CALM      30.05F
RED OAK *      PTCLDY    75  61  60 SE5       30.03F
SHENANDOAH *   CLEAR     73  63  68 SE5       30.03F
$$

IAZ047>049-059>061-072>074-084-010200-
   CENTRAL IOWA

CITY           SKY/WX    TMP DP  RH WIND       PRES   REMARKS
AMES           MOCLDY    71  62  73 W8        30.04S
ANKENY *       CLEAR     72  61  68 W6        30.04F
CHARITON *     MOCLDY    75  59  57 SW3       30.04F
DES MOINES     CLOUDY    71  65  81 W5        30.04S
GRINNELL*      PTCLDY    73  63  68 S3        30.04S
KNOXVILLE *    MOCLDY    75  63  64 CALM      30.03S
MARSHALLTOWN   PTCLDY    74  64  71 SW3       30.03S
PELLA *        LGT RAIN  75  64  69 CALM      30.05S
PERRY *          N/A     70  64  83 CALM      30.05S
$$

IAZ004>006-015-016-023>025-035-036-010200-
   NORTH CENTRAL IOWA

CITY           SKY/WX    TMP DP  RH WIND       PRES   REMARKS
ALGONA *       MOCLDY    73  63  68 S5        30.03S
CLARION *      CLEAR     73  64  73 S5        30.03F
ESTHERVILLE    MOCLDY    67  63  87 S5        30.03S
FORT DODGE *   CLEAR     72  61  68 SW5       30.05S
MASON CITY     CLEAR     75  59  57 CALM      30.04S
FOREST CITY *  CLEAR     73  61  64 CALM      30.03S
IOWA FALLS *     N/A     73  63  68 SW3       30.05S
$$

IAZ007>011-017>019-026>030-037>042-050>054-066-010200-
   NORTHEAST IOWA

CITY           SKY/WX    TMP DP  RH WIND       PRES   REMARKS
CEDAR RAPIDS   CLEAR     72  64  76 SW3       30.03S
CHARLES CITY * CLEAR     73  64  73 CALM      30.04S
CLINTON *      CLEAR     72  66  83 W3        30.06S
DECORAH *      CLEAR     73  57  56 CALM      30.02S
DUBUQUE        CLEAR     72  61  68 W5        30.04S
MONTICELLO *   CLEAR     73  64  73 CALM      30.02F
OELWEIN *      CLEAR     73  63  68 W3        30.04S
WATERLOO       CLEAR     75  58  55 W5        30.01F
$$

IAZ064-065-067-068-078-010200-
   EAST CENTRAL IOWA

CITY           SKY/WX    TMP DP  RH WIND       PRES   REMARKS
DAVENPORT      CLEAR     73  64  73 W3        30.04S
IOWA CITY      CLEAR     74  62  66 W3        30.04S
MT. PLEASANT * CLEAR     73  64  73 S3        30.04S
MUSCATINE *    CLEAR     77  63  61 SW5       30.03S
QUAD CITIES    CLEAR     76  63  64 CALM      30.03R
$$

IAZ062-063-075>077-085>089-095>099-010200-
   SOUTHEAST IOWA

CITY           SKY/WX    TMP DP  RH WIND       PRES   REMARKS
BURLINGTON     CLEAR     74  64  71 CALM      30.04S
FAIRFIELD *    CLEAR     75  61  60 CALM      30.04S
FORT MADISON * CLEAR     73  66  78 CALM      30.05S
KEOKUK *       CLEAR     75  66  73 CALM      30.04S
OSKALOOSA *      N/A     73  64  73 CALM      30.04F
CENTERVILLE *  CLEAR     70  66  88 CALM      30.06F
OTTUMWA        PTCLDY    72  67  84 CALM      30.04S
WASHINGTON *   CLEAR     73  66  78 SW3       30.04S
$$

ABBREVIATIONS USED IN REMARKS
   TC - TEMPERATURES IN CELSIUS
  WCI - WIND CHILL INDEX
   HX - HEAT INDEX
  VSB - VISIBILITY
$$




USA.gov is the U.S. government's official web portal to all federal, state and local government web resources and services.